2019-038R (44401 NORAD) Tracking and Keplerian Element Data

This shows tracking and keplerian element data for the satellite.

Feedback or suggestion? Click here.




ElementValue
Catalog44401
Name2019-038R
Epoch Orbit187
Epoch Day198.87664894
Epoch Year2019
RAAN160.584
Inclination97.4905
Eccentricity0.0024642
Argument of Perigee197.8422
Mean Anonmoly162.1946
Mean Motion15.11715465
Decay Rate3.61E-06
L11 44401U 19038R 19198.87664894 .00000361 00000-0 24846-4 0 9992
L22 44401 97.4905 160.5840 0024642 197.8422 162.1946 15.11715465 1875

Live tracking and technical data element details for 2019-038R (NORAD 44401). 2019-038R can be tracked NOW for your location showing map with azimuth and elevation plus other details from your city location.

Track the satellite on the map from your city or location and see movement details for azimuth, elevation, latitude, longitude, range, height, and movement on the map or in text.







IsCatalogInMostPopularTable: catalog: 44401, numindb: 3
Update: records affected: 1



GetName: 44401 2019-038R

Hit Count: updated at: Fri, 19 Jul 2019 07:53:09 GMT